[[{"header":{"parameterUnit":"m.s-1","parameterCategory":1,"la1":30.2991,"la2":30.254,"lo1":-89.0895,"lo2":-89.0444,"dy":0.0017,"dx":0.0017,"nx":28,"ny":28,"refTime":"2026-03-05T03:00:00:Z","depth":0,"parameterNumber":2,"parameterNumberName":"U-component_of_WINDS"},"data":[0,0,0,0,0,0,0,0,0,0,0,0,0,0,0,0,0,0,0,0,0,0,0,0,0,0,0,0,0,0,0,0,0,0,0,0,0,0,0,0,0,0,0,0,0,0,0,0,0,0,0,0,0,0,0,0,0,0,-3.5304,-3.5304,0,-3.5315,-3.5315,-3.5315,-3.5272,-3.527,-3.5269,-3.5268,-3.5279,-3.528,-3.5282,0,0,0,0,0,0,0,0,0,0,0,0,0,-3.5246,-3.5248,-3.5304,-3.5304,-3.5304,-3.5315,-3.5315,-3.5315,-3.5272,-3.527,-3.5269,-3.5267,-3.5278,-3.528,-3.5282,0,0,0,0,0,0,0,0,0,0,0,0,0,-3.5266,-3.5248,-3.5304,-3.5284,-3.5282,-3.5315,-3.5315,-3.5315,-3.5272,-3.527,-3.5268,-3.5267,-3.5278,-3.528,-3.5282,-3.5334,0,0,-3.5289,-3.529,0,0,0,0,0,0,0,0,-3.5265,-3.5268,-3.5287,-3.5285,-3.5284,-3.529,-3.5298,-3.5321,-3.5273,-3.5276,-3.5268,-3.5266,-3.5284,-3.5286,-3.5292,-3.5334,-3.5335,-3.5289,-3.529,-3.5291,-3.5292,0,0,0,0,0,0,0,-3.5263,-3.5267,-3.5308,-3.5287,-3.5285,-3.5275,-3.5275,-3.5303,-3.5291,-3.5276,-3.5272,-3.5274,-3.5283,-3.529,-3.5292,-3.5335,-3.5289,-3.5291,-3.5292,-3.5293,-3.5421,-3.5423,0,0,0,0,0,0,-3.5265,-3.5266,-3.5308,-3.5308,-3.5269,-3.5277,-3.5278,-3.529,-3.529,-3.5288,-3.5276,-3.5272,-3.5287,-3.5289,-3.5292,-3.5352,-3.5291,-3.5293,-3.5295,-3.5419,-3.5422,-3.5424,0,0,0,0,0,0,-3.5264,-3.5269,-3.5307,-3.5287,-3.5291,-3.528,-3.5294,-3.5291,-3.5298,-3.529,-3.5288,-3.5285,-3.5285,-3.5289,-3.5324,-3.5352,-3.5294,-3.5296,-3.5417,-3.542,-3.5423,-3.5473,0,0,0,0,0,0,-3.5262,-3.5269,-3.5288,-3.5287,-3.5292,-3.5339,-3.5296,-3.5293,-3.5302,-3.5297,-3.5298,-3.5297,-3.5284,-3.5321,-3.5326,-3.5354,-3.5298,-3.5414,-3.5418,-3.5422,-3.5469,-3.5477,-3.5485,0,0,0,0,0,-3.526,-3.5302,-3.5289,-3.5294,-3.5316,-3.534,-3.5343,-3.5328,-3.5304,-3.5323,-3.5319,-3.5297,-3.5349,-3.5325,-3.533,-3.5359,-3.5412,-3.5417,-3.5422,-3.5465,-3.5476,-3.5485,0,0,0,0,0,0,-3.5305,-3.5301,-3.5287,-3.5329,-3.5336,-3.5333,-3.5357,-3.5339,-3.5352,-3.5347,-3.5328,-3.5329,-3.5367,-3.5367,-3.534,-3.541,-3.5376,-3.5382,-3.5408,-3.5418,-3.5425,-3.5423,-3.53,0,0,0,0,0,-3.532,-3.534,-3.5336,-3.5374,-3.5378,-3.5367,-3.5377,-3.5365,-3.5371,-3.5373,-3.5371,-3.5377,-3.5395,-3.5407,-3.5423,-3.547,-3.5469,-3.5493,-3.5501,-3.5507,-3.5512,-3.5536,-3.5546,-3.5439,-3.5439,-3.5439,0,0,-3.5351,-3.5351,-3.5365,-3.5383,-3.5386,-3.5407,-3.5369,-3.5394,-3.5409,-3.5377,-3.5409,-3.5408,-3.5414,-3.5456,-3.5474,-3.5457,-3.5542,-3.5513,-3.5519,-3.5519,-3.5542,-3.5552,-3.5561,-3.5442,-3.5442,-3.5441,0,0,-3.5417,-3.542,-3.5451,-3.5456,-3.5462,-3.5455,-3.5463,-3.5463,-3.5461,-3.5494,-3.547,-3.5489,-3.552,-3.5525,-3.5532,-3.5603,-3.5582,-3.5609,-3.5649,-3.5674,-3.5682,-3.5689,-3.5713,-3.5722,-3.5614,-3.5614,-3.5614,0,-3.5454,-3.5485,-3.5469,-3.5495,-3.5504,-3.5477,-3.5508,-3.5514,-3.5525,-3.5531,-3.5513,-3.5551,-3.5553,-3.5595,-3.5612,-3.562,-3.5627,-3.5607,-3.5682,-3.5689,-3.5696,-3.5718,-3.5728,-3.5617,-3.5617,-3.5616,-3.5616,0,-3.5529,-3.5552,-3.5576,-3.5588,-3.5599,-3.5628,-3.5618,-3.5631,-3.5619,-3.5615,-3.5649,-3.5651,-3.5666,-3.5676,-3.5664,-3.5717,-3.5706,-3.5686,-3.5651,-3.5709,-3.573,-3.5739,-3.5621,-3.562,-3.5619,-3.5619,0,0,-3.562,-3.5625,-3.5634,-3.5639,-3.5645,-3.5661,-3.569,-3.5706,-3.5717,-3.5727,-3.5749,-3.5777,-3.5759,-3.5766,-3.5755,-3.5777,-3.5832,-3.5754,-3.5754,-3.5766,-3.5888,-3.5902,-3.5912,-3.582,-3.5822,-3.5823,-3.5887,0,-3.5684,-3.5731,-3.5719,-3.5766,-3.5786,-3.5762,-3.5787,-3.5794,-3.5791,-3.5808,-3.5805,-3.5824,-3.5799,-3.5803,-3.5824,-3.5821,-3.5856,-3.5816,-3.5839,-3.584,-3.5836,-3.5923,-3.5937,-3.5997,-3.5895,-3.5897,-3.5898,0,-3.5763,-3.5776,-3.5825,-3.5828,-3.5836,-3.5858,-3.5872,-3.5889,-3.5896,-3.5893,-3.5902,-3.5888,-3.5916,-3.5884,-3.5922,-3.5896,-3.5905,-3.5906,-3.5908,-3.5907,-3.587,-3.5922,-3.6017,-3.6025,-3.5911,-3.591,-3.5909,0,-3.5822,-3.5852,-3.5885,-3.589,-3.5895,-3.5911,-3.5914,-3.592,-3.593,-3.5943,-3.595,-3.5966,-3.5974,-3.5987,-3.5977,-3.5955,-3.6017,-3.5984,-3.6014,-3.6014,-3.6025,-3.6024,-3.612,-3.6036,-3.6036,-3.6036,-3.6036,0,-3.5892,-3.5923,-3.5911,-3.5931,-3.5965,-3.5953,-3.5986,-3.5987,-3.5992,-3.6012,-3.5994,-3.6013,-3.6,-3.6018,-3.6011,-3.6044,-3.6048,-3.6046,-3.6043,-3.6046,-3.6046,-3.6049,-3.6044,-3.6038,-3.6038,-3.6037,-3.6037,0,-3.5962,-3.5956,-3.599,-3.5993,-3.5995,-3.6019,-3.6021,-3.604,-3.6037,-3.6063,-3.6068,-3.6063,-3.6084,-3.6077,-3.6099,-3.6094,-3.6135,-3.6128,-3.6132,-3.6129,-3.6158,-3.6155,-3.6257,-3.6269,-3.618,-3.6181,-3.6182,0,-3.6006,-3.6029,-3.6034,-3.6046,-3.6051,-3.6071,-3.6081,-3.6071,-3.6083,-3.6094,-3.6112,-3.6131,-3.6145,-3.618,-3.6178,-3.6195,-3.6187,-3.6222,-3.6189,-3.6192,-3.6185,-3.6183,-3.6185,-3.6228,-3.6229,-3.623,-3.623,0,-3.6083,-3.608,-3.6096,-3.6112,-3.6126,-3.6138,-3.6148,-3.6159,-3.6149,-3.6164,-3.6185,-3.6197,-3.622,-3.6239,-3.6255,-3.6258,-3.6242,-3.6241,-3.6248,-3.625,-3.625,-3.6249,-3.6147,-3.6238,-3.6237,-3.6237,-3.6236,-3.6236,-3.614,-3.6159,-3.6166,-3.6185,-3.6192,-3.6203,-3.622,-3.622,-3.6238,-3.6255,-3.6249,-3.6273,-3.6281,-3.6301,-3.6307,-3.6326,-3.6312,-3.6323,-3.6325,-3.6328,-3.633,-3.625,-3.6329,-3.6329,-3.6328,-3.6328,-3.6328,0,-3.6214,-3.6218,-3.6236,-3.6252,-3.6267,-3.6253,-3.6264,-3.6277,-3.6299,-3.6308,-3.6323,-3.6348,-3.6367,-3.6368,-3.6386,-3.6401,-3.6394,-3.6406,-3.6403,-3.6404,-3.6342,-3.6333,-3.6411,-3.6411,-3.6411,-3.6411,-3.6411,-3.6411,-3.6255,-3.6286,-3.6284,-3.6319,-3.6323,-3.6346,-3.6354,-3.6364,-3.6371,-3.6399,-3.6415,-3.6416,-3.6422,-3.644,-3.6457,-3.6457,-3.6464,-3.6478,-3.6475,-3.6417,-3.6408,-3.64,-3.6391,-3.648,-3.648,-3.6534,-3.6534,-3.6535]},{"header":{"parameterUnit":"m.s-1","parameterCategory":1,"la1":30.2991,"la2":30.254,"lo1":-89.0895,"lo2":-89.0444,"dy":0.0017,"dx":0.0017,"nx":28,"ny":28,"refTime":"2026-03-05T03:00:00:Z","depth":0,"parameterNumber":3,"parameterNumberName":"V-component_of_WINDS"},"data":[0,0,0,0,0,0,0,0,0,0,0,0,0,0,0,0,0,0,0,0,0,0,0,0,0,0,0,0,0,0,0,0,0,0,0,0,0,0,0,0,0,0,0,0,0,0,0,0,0,0,0,0,0,0,0,0,0,0,2.0239,2.024,0,2.0295,2.0296,2.0296,2.0307,2.0307,2.0306,2.0306,2.0361,2.0362,2.0364,0,0,0,0,0,0,0,0,0,0,0,0,0,2.0141,2.0143,2.0239,2.024,2.024,2.0295,2.0296,2.0296,2.0307,2.0307,2.0306,2.0306,2.036,2.0362,2.0364,0,0,0,0,0,0,0,0,0,0,0,0,0,2.0189,2.0143,2.0239,2.0253,2.0254,2.0295,2.0296,2.0297,2.0308,2.0307,2.0306,2.0306,2.0359,2.0362,2.0365,2.0395,0,0,2.0373,2.0374,0,0,0,0,0,0,0,0,2.0186,2.0192,2.025,2.0252,2.0254,2.0294,2.0281,2.0329,2.0308,2.0287,2.0306,2.0305,2.0339,2.0343,2.0355,2.0397,2.04,2.0374,2.0375,2.0376,2.0377,0,0,0,0,0,0,0,2.0183,2.019,2.0261,2.0251,2.0253,2.0256,2.0262,2.029,2.0316,2.0289,2.029,2.0297,2.034,2.0352,2.0356,2.04,2.0373,2.0376,2.0378,2.0379,2.0473,2.0474,0,0,0,0,0,0,2.0177,2.0187,2.0259,2.0263,2.0218,2.0258,2.0265,2.0281,2.0316,2.032,2.0297,2.0297,2.0348,2.0353,2.0358,2.0398,2.0376,2.0379,2.0381,2.0472,2.0473,2.0474,0,0,0,0,0,0,2.0175,2.0184,2.0257,2.0225,2.0235,2.026,2.0279,2.0283,2.0296,2.0322,2.0326,2.0305,2.0348,2.0354,2.0386,2.04,2.038,2.0383,2.0471,2.0472,2.0474,2.0475,0,0,0,0,0,0,2.0172,2.0183,2.0194,2.0226,2.0237,2.0285,2.028,2.0284,2.0301,2.0301,2.0331,2.0335,2.0348,2.0382,2.0389,2.0403,2.0385,2.047,2.0472,2.0473,2.0474,2.0476,2.0478,0,0,0,0,0,2.0169,2.0191,2.0195,2.0204,2.0252,2.0285,2.0291,2.0306,2.0302,2.0314,2.0331,2.0334,2.0397,2.0385,2.0393,2.0408,2.0469,2.0471,2.0473,2.0473,2.0476,2.0478,0,0,0,0,0,0,2.0159,2.0196,2.02,2.0233,2.0256,2.0287,2.0303,2.0308,2.0332,2.0331,2.0348,2.0355,2.0386,2.04,2.0387,2.044,2.0433,2.0436,2.043,2.0433,2.0435,2.0431,2.0387,0,0,0,0,0,2.0162,2.0186,2.0216,2.0243,2.0254,2.0277,2.0292,2.0302,2.0325,2.0335,2.0354,2.0377,2.0402,2.0418,2.0442,2.0476,2.0484,2.049,2.0493,2.0494,2.0497,2.0518,2.0522,2.048,2.048,2.048,0,0,2.0166,2.0189,2.0203,2.0242,2.0261,2.0286,2.0285,2.0311,2.033,2.0338,2.0371,2.0386,2.0412,2.0446,2.0462,2.0459,2.0511,2.0497,2.0498,2.05,2.0521,2.0525,2.0528,2.0482,2.0481,2.0481,0,0,2.0186,2.0206,2.0231,2.0251,2.028,2.0296,2.0302,2.0332,2.0343,2.0376,2.0384,2.0407,2.0449,2.0468,2.0484,2.0515,2.0519,2.0522,2.0533,2.0554,2.0557,2.056,2.0573,2.0577,2.0525,2.0525,2.0525,0,2.0188,2.0227,2.0243,2.0271,2.0288,2.0299,2.0325,2.0343,2.0378,2.039,2.0387,2.0442,2.046,2.05,2.0508,2.0519,2.0528,2.0519,2.0555,2.0559,2.0562,2.0574,2.0579,2.0525,2.0525,2.0525,2.0525,0,2.0228,2.0255,2.0272,2.0308,2.0327,2.0354,2.0375,2.0392,2.0401,2.0417,2.0451,2.0474,2.0504,2.0514,2.0522,2.0556,2.0553,2.0552,2.0545,2.0566,2.0578,2.0583,2.0526,2.0526,2.0526,2.0525,0,0,2.0243,2.029,2.0296,2.0314,2.0348,2.0369,2.0397,2.0428,2.0444,2.0468,2.0492,2.0529,2.053,2.0547,2.0557,2.0575,2.0601,2.0572,2.0573,2.0578,2.0642,2.0643,2.0649,2.0604,2.0605,2.0606,2.064,0,2.0269,2.032,2.0337,2.0379,2.0405,2.0417,2.0441,2.0465,2.0481,2.0505,2.0522,2.0549,2.0546,2.0557,2.0575,2.0594,2.0614,2.0592,2.0627,2.0628,2.0622,2.0655,2.0656,2.0687,2.0645,2.0646,2.0646,0,2.0306,2.0333,2.0379,2.0413,2.0424,2.0446,2.0477,2.05,2.0528,2.0538,2.0559,2.0569,2.0599,2.059,2.0632,2.0616,2.0632,2.0643,2.0645,2.065,2.0639,2.0661,2.0697,2.0703,2.0653,2.0653,2.0652,0,2.0315,2.0363,2.0397,2.0411,2.0451,2.0466,2.0483,2.0511,2.0529,2.0556,2.0569,2.0598,2.0615,2.0638,2.0655,2.0647,2.0697,2.0689,2.0707,2.0707,2.0717,2.0716,2.0757,2.0725,2.0725,2.0725,2.0725,0,2.0343,2.037,2.0402,2.0423,2.0455,2.0474,2.0505,2.0523,2.0547,2.0572,2.0583,2.0606,2.0628,2.0654,2.0667,2.0702,2.0708,2.0718,2.0722,2.0718,2.0717,2.0729,2.0728,2.0726,2.0726,2.0726,2.0725,0,2.0358,2.038,2.0418,2.0454,2.0463,2.0486,2.0516,2.0537,2.0554,2.0586,2.0594,2.062,2.0652,2.0672,2.0711,2.072,2.0758,2.076,2.0749,2.0751,2.0769,2.0768,2.082,2.0829,2.079,2.079,2.079,0,2.0375,2.0397,2.0436,2.0454,2.0472,2.0501,2.0521,2.0541,2.0561,2.0596,2.0613,2.0646,2.0673,2.0723,2.0746,2.0776,2.078,2.0796,2.0785,2.0781,2.0782,2.0782,2.0785,2.0798,2.0799,2.0799,2.0799,0,2.0403,2.0414,2.0442,2.0476,2.05,2.0527,2.0553,2.0567,2.0592,2.0615,2.0648,2.0669,2.0711,2.0744,2.0777,2.0795,2.0802,2.0803,2.0809,2.0806,2.08,2.0805,2.0756,2.0802,2.0801,2.0801,2.0801,2.0801,2.0421,2.0442,2.0474,2.0506,2.0529,2.0554,2.0577,2.0598,2.0626,2.0663,2.0673,2.0708,2.0738,2.0784,2.0802,2.083,2.0828,2.0836,2.0839,2.0841,2.0842,2.0795,2.0836,2.0836,2.0836,2.0836,2.0836,0,2.0451,2.0473,2.0503,2.0541,2.0567,2.0573,2.0603,2.0624,2.0656,2.0683,2.0711,2.075,2.0782,2.0809,2.0842,2.086,2.0864,2.0868,2.0867,2.0872,2.0841,2.0833,2.0864,2.0864,2.0864,2.0864,2.0864,2.0864,2.047,2.0507,2.0522,2.0571,2.0592,2.0628,2.0646,2.0669,2.0692,2.0736,2.0764,2.0781,2.0808,2.0845,2.0875,2.0882,2.0894,2.0898,2.0906,2.0877,2.0873,2.0871,2.0863,2.09,2.09,2.0934,2.0935,2.0935]}]]